Location: Mahannah Oil Field
(37.4664°N, 96.6003°W)
Time: 11:09:01
(UTC+00:00)

Vanguard 2 - Pass Details

Date: 26 January 2021
Orbit: 552 x 2938 km, 32.9° (Epoch: 08 March)

Event Time Altitude Azimuth Distance (km) Brightness Sun altitude
Rises 01:07:57 0° 266° (W) 2,761 12.1 -16.9°
Reaches altitude 10° 01:10:01 10° 259° (W) 1,946 10.9 -17.3°
Maximum altitude 01:14:08 45° 186° (S) 985 8.1 -18.1°
Enters shadow 01:17:35 21° 124° (SE) 1,858 9.1 -18.7°
